This is the latest recevied weather packets stored in our database for station/object PY4QS-13. If no packets are shown the sender has not sent any weather packets the latest 10 day(s).
| Time | Temp. | Humidity | Pressure | Rain* | Wind** | Luminosity | Snow |
|---|---|---|---|---|---|---|---|
| 1777764125 | 20.56° C | 61% | 1024.4 hPa | - | - | - | - |
| 1777763822 | 20.56° C | 62% | 1024.4 hPa | - | - | - | - |
| 1777763520 | 20.56° C | 62% | 1024.6 hPa | - | - | - | - |
| 1777763216 | 20.56° C | 62% | 1024.8 hPa | - | - | - | - |
| 1777762914 | 20.56° C | 62% | 1024.9 hPa | - | - | - | - |
| 1777762611 | 20.56° C | 61% | 1024.9 hPa | - | - | - | - |
| 1777762308 | 20.56° C | 60% | 1024.9 hPa | - | - | - | - |
| 1777762006 | 20.56° C | 60% | 1024.9 hPa | - | - | - | - |
| 1777761704 | 20.56° C | 61% | 1025 hPa | - | - | - | - |
| 1777761401 | 20.56° C | 62% | 1024.9 hPa | - | - | - | - |
| 1777761098 | 21.11° C | 61% | 1024.9 hPa | - | - | - | - |
| 1777760796 | 21.11° C | 60% | 1024.8 hPa | - | - | - | - |
| 1777760492 | 21.11° C | 60% | 1024.7 hPa | - | - | - | - |
| 1777760190 | 21.11° C | 60% | 1024.7 hPa | - | - | - | - |
| 1777759885 | 21.11° C | 60% | 1024.6 hPa | - | - | - | - |
| 1777759583 | 21.11° C | 60% | 1024.7 hPa | - | - | - | - |
| 1777758976 | 21.67° C | 58% | 1024.4 hPa | - | - | - | - |
| 1777758672 | 21.67° C | 58% | 1024.3 hPa | - | - | - | - |
| 1777758369 | 21.67° C | 59% | 1024.1 hPa | - | - | - | - |
| 1777758066 | 21.67° C | 60% | 1024 hPa | - | - | - | - |
| 1777757764 | 22.22° C | 63% | 1023.8 hPa | - | - | - | - |
| 1777757461 | 22.22° C | 65% | 1023.7 hPa | - | - | - | - |
| 1777757159 | 22.22° C | 67% | 1023.6 hPa | - | - | - | - |
| 1777756855 | 22.22° C | 66% | 1023.3 hPa | - | - | - | - |
| 1777756553 | 22.78° C | 65% | 1023.2 hPa | - | - | - | - |
* Rain since midnight (hover to see other rain measurements)
** Current wind speed in m/s (hover to see current wind gust speed)